Location: Detroit
(42.3310°N, 83.0460°W)
Time: 09:23:09
(UTC-05:00)

Vanguard 2 Rocket - All Passes

Search period start: 27 January 2023 00:00
Search period end: 06 February 2023 00:00
Orbit: 556 x 3318 km, 32.9° (Epoch: 26 January)

Date Brightness Start Highest point End Pass type
(mag) Time Alt. Az. Time Alt. Az. Time Alt. Az.
27 Jan - 12:16:43 10° S 12:18:09 12° SSE 12:19:37 10° SE daylight
27 Jan - 14:26:20 10° SW 14:30:01 28° S 14:35:00 10° ESE daylight
27 Jan - 16:37:50 10° WSW 16:42:34 29° S 16:49:45 10° SE daylight
27 Jan - 18:51:12 10° WSW 18:56:05 17° SSW 19:02:37 10° SSE visible
28 Jan - 13:27:00 10° SW 13:30:11 22° SSE 13:33:56 10° ESE daylight
28 Jan - 15:38:16 10° WSW 15:42:24 29° S 15:48:20 10° SE daylight
28 Jan - 17:50:49 10° WSW 17:55:26 20° SSW 18:01:52 10° SSE daylight
29 Jan - 12:27:47 10° SSW 12:30:22 17° SSE 12:33:05 10° ESE daylight
29 Jan - 14:38:46 10° WSW 14:42:23 27° S 14:47:11 10° ESE daylight
29 Jan - 16:50:50 10° WSW 16:55:02 21° SSW 17:00:53 10° SSE daylight
30 Jan - 11:28:48 10° S 11:30:30 12° SSE 11:32:10 10° SE daylight
30 Jan - 13:39:13 10° SW 13:42:30 24° S 13:46:21 10° ESE daylight
30 Jan - 15:51:03 10° WSW 15:54:48 23° S 15:59:55 10° SE daylight
30 Jan - 18:05:25 10° SW 18:07:55 12° SSW 18:10:49 10° S visible
31 Jan - 12:39:37 10° SW 12:42:39 21° S 12:45:48 10° ESE daylight
31 Jan - 14:51:22 10° WSW 14:54:46 23° S 14:59:06 10° SE daylight
31 Jan - 17:04:32 10° SW 17:07:28 14° SSW 17:11:04 10° SSE daylight
01 Feb - 11:39:54 10° SSW 11:42:47 17° SSE 11:45:29 10° SE daylight
01 Feb - 13:51:38 10° SW 13:54:50 23° S 13:58:32 10° SE daylight
01 Feb - 16:04:16 10° SW 16:07:13 16° SSW 16:10:52 10° SSE daylight
02 Feb - 10:40:06 10° SSW 10:42:50 15° SSE 10:45:14 10° SE daylight
02 Feb - 12:51:46 10° SW 12:54:58 23° S 12:58:14 10° SE daylight
02 Feb - 15:04:15 10° SW 15:07:08 18° S 15:10:36 10° SSE daylight
03 Feb - 09:40:21 10° S 09:42:46 13° SSE 09:44:52 10° SE daylight
03 Feb - 11:51:41 10° SW 11:55:05 22° S 11:58:11 10° ESE daylight
03 Feb - 14:04:15 10° WSW 14:07:10 19° S 14:10:26 10° SE daylight
04 Feb - 08:41:06 10° S 08:42:32 11° SSE 08:43:51 10° SSE daylight
04 Feb - 10:51:23 10° SW 10:55:10 21° S 10:58:17 10° ESE daylight
04 Feb - 13:04:08 10° WSW 13:07:16 21° S 13:10:26 10° SE daylight
04 Feb - 15:18:01 10° SW 15:19:27 11° SSW 15:21:01 10° S daylight
05 Feb - 09:50:51 10° SW 09:55:07 19° S 09:58:26 10° ESE daylight
05 Feb - 12:03:47 10° WSW 12:07:24 24° S 12:10:36 10° SE daylight
05 Feb - 14:17:15 10° SW 14:19:26 14° SSW 14:21:46 10° SSE daylight
